This is the latest recevied weather packets stored in our database for station/object KC5DAQ-27. If no packets are shown the sender has not sent any weather packets the latest 1 day(s).
| Time | Temp. | Humidity | Pressure | Rain* | Wind** | Luminosity | Snow |
|---|---|---|---|---|---|---|---|
| 1777992812 | 23.89° C | 91% | 1000.6 hPa | 0 mm | 3.58 m/s, 186° | 98 W/m² | - |
| 1777992752 | 23.89° C | 91% | 1000.7 hPa | 0 mm | 3.58 m/s, 183° | 97 W/m² | - |
| 1777992693 | 23.89° C | 91% | 1000.7 hPa | 0 mm | 3.13 m/s, 197° | 100 W/m² | - |
| 1777992631 | 23.89° C | 92% | 1000.7 hPa | 0 mm | 3.13 m/s, 161° | 95 W/m² | - |
| 1777992571 | 23.89° C | 92% | 1000.7 hPa | 0 mm | 3.13 m/s, 180° | 99 W/m² | - |
| 1777992511 | 23.89° C | 92% | 1000.7 hPa | 0 mm | 4.02 m/s, 188° | 118 W/m² | - |
| 1777992452 | 23.89° C | 92% | 1000.8 hPa | 0 mm | 4.02 m/s, 188° | 143 W/m² | - |
| 1777992392 | 23.89° C | 92% | 1000.8 hPa | 0 mm | 4.02 m/s, 178° | 164 W/m² | - |
| 1777992332 | 23.89° C | 92% | 1000.8 hPa | 0 mm | 3.13 m/s, 197° | 174 W/m² | - |
| 1777992273 | 23.89° C | 92% | 1000.8 hPa | 0 mm | 2.68 m/s, 166° | 153 W/m² | - |
| 1777992211 | 23.89° C | 92% | 1000.7 hPa | 0 mm | 2.68 m/s, 200° | 169 W/m² | - |
| 1777992151 | 23.89° C | 92% | 1000.7 hPa | 0 mm | 3.58 m/s, 212° | 193 W/m² | - |
| 1777992091 | 23.89° C | 92% | 1000.7 hPa | 0 mm | 3.58 m/s, 178° | 179 W/m² | - |
| 1777992032 | 23.89° C | 92% | 1000.6 hPa | 0 mm | 3.58 m/s, 192° | 192 W/m² | - |
| 1777991971 | 23.89° C | 92% | 1000.6 hPa | 0 mm | 4.02 m/s, 158° | 169 W/m² | - |
| 1777991912 | 23.89° C | 92% | 1000.6 hPa | 0 mm | 4.02 m/s, 179° | 153 W/m² | - |
| 1777991852 | 23.89° C | 92% | 1000.7 hPa | 0 mm | 3.13 m/s, 186° | 176 W/m² | - |
| 1777991792 | 23.89° C | 92% | 1000.7 hPa | 0 mm | 2.68 m/s, 200° | 167 W/m² | - |
| 1777991731 | 23.89° C | 92% | 1000.6 hPa | 0 mm | 2.68 m/s, 173° | 142 W/m² | - |
| 1777991673 | 23.89° C | 92% | 1000.6 hPa | 0 mm | 3.13 m/s, 180° | 116 W/m² | - |
| 1777991611 | 23.89° C | 92% | 1000.6 hPa | 0 mm | 3.58 m/s, 203° | 97 W/m² | - |
| 1777991551 | 23.89° C | 92% | 1000.6 hPa | 0 mm | 4.02 m/s, 182° | 100 W/m² | - |
| 1777991491 | 23.89° C | 92% | 1000.7 hPa | 0 mm | 3.13 m/s, 162° | 128 W/m² | - |
| 1777991432 | 23.89° C | 92% | 1000.7 hPa | 0 mm | 3.13 m/s, 171° | 130 W/m² | - |
| 1777991371 | 23.89° C | 92% | 1000.7 hPa | 0 mm | 3.58 m/s, 172° | 150 W/m² | - |
* Rain latest hour (hover to see other rain measurements)
** Current wind speed in m/s (hover to see current wind gust speed)